STARLINK-32524 (62159 NORAD) Tracking and Keplerian Element Data

This shows tracking and keplerian element data for the satellite.

Feedback or suggestion? Click here.




ElementValue
Catalog62159
NameSTARLINK-32524
Epoch Orbit1111
Epoch Day34.03879904
Epoch Year2025
RAAN262.4656
Inclination42.9999
Eccentricity0.00011
Argument of Perigee271.3677
Mean Anonmoly88.705
Mean Motion15.32094907
Decay Rate-4E-07
L11 62159U 24224W 25034.03879904 -.00000040 00000+0 74470-5 0 9992
L22 62159 42.9999 262.4656 0001100 271.3677 88.7050 15.32094907 11115



Live tracking and technical data element details for STARLINK-32524 (NORAD 62159). STARLINK-32524 can be tracked NOW for your location showing map with azimuth and elevation plus other details from your city location.







IsCatalogInMostPopularTable: catalog: 62159, numindb: 11
Update: records affected: 1



GetName: 62159 STARLINK-32524

Hit Count: updated at: Sun, 18 May 2025 23:49:36 GMT